{"data":{"norad_id":67611,"intl_designator":"2026-018Y","name":"STARLINK-36636","alt_names":[],"object_type":"PAYLOAD","status":"ACTIVE","operator":null,"country":"US","launch_date":"2026-01-29","launch_site_code":"AFWTR","launch_vehicle":null,"mission":null,"orbit_class":"UNKNOWN","rcs_meters":null,"size_class":null,"mass_kg":null,"dimensions":null,"purposes":["comms"],"wikipedia_slug":null,"has_3d_model":false,"image_url":null,"decayed_at":null,"tle_current":{"epoch":"2026-05-25T02:51:15.374880Z","epoch_age_seconds":68082,"freshness":"FRESH","line1":"1 67611U 26018Y   26145.11892795  .00020130  00000+0  62392-3 0  9998","line2":"2 67611  97.2840 210.1950 0000425 243.7614 116.3585 15.33459014 19047","mean_motion":15.33459014,"eccentricity":4.25e-5,"inclination_deg":97.284,"raan_deg":210.195,"arg_perigee_deg":243.7614,"mean_anomaly_deg":116.3585,"bstar":0.00062392,"rev_number":1904,"period_min":93.905346465295,"perigee_km":465.21062435601,"apogee_km":465.79233362672,"semimajor_km":6843.6384789914,"source":"CELESTRAK","updated_at":"2026-05-25T13:38:21.648065Z"}}}